Time,TemperatureF,DewpointF,PressureIn,WindDirection,WindDirectionDegrees,WindSpeedMPH,WindSpeedGustMPH,Humidity,HourlyPrecipIn,Conditions,Clouds,dailyrainin,SoftwareType,DateUTC
2014-04-18 00:23:00,49.0,35.0,-100.00,NE,35,1.0,2.0,58,0.00,,,-99.99,,2014-04-18 04:23:00,
2014-04-18 00:53:00,49.0,35.0,-100.00,SW,230,0.0,0.0,59,0.00,,,-99.99,,2014-04-18 04:53:00,
2014-04-18 01:22:00,46.0,35.0,-100.00,NE,40,1.0,3.0,64,0.00,,,-99.99,,2014-04-18 05:22:00,
2014-04-18 01:52:00,47.0,35.0,-100.00,NW,305,0.0,0.0,61,0.00,,,-99.99,,2014-04-18 05:52:00,
2014-04-18 02:22:00,48.0,35.0,-100.00,North,0,1.0,2.0,60,0.00,,,-99.99,,2014-04-18 06:22:00,
2014-04-18 02:52:00,46.0,35.0,-100.00,WNW,300,0.0,2.0,65,0.00,,,-99.99,,2014-04-18 06:52:00,
2014-04-18 03:22:00,45.0,35.0,-100.00,West,270,0.0,0.0,65,0.00,,,-99.99,,2014-04-18 07:22:00,
2014-04-18 03:52:00,44.0,35.0,-100.00,SE,130,0.0,1.0,69,0.00,,,-99.99,,2014-04-18 07:52:00,
2014-04-18 04:22:00,46.0,35.0,-100.00,South,180,0.0,1.0,65,0.00,,,-99.99,,2014-04-18 08:22:00,
2014-04-18 04:52:00,45.0,35.0,-100.00,WSW,245,0.0,1.0,66,0.00,,,-99.99,,2014-04-18 08:52:00,
2014-04-18 05:22:00,45.0,35.0,-100.00,SSE,155,0.0,3.0,68,0.00,,,-99.99,,2014-04-18 09:22:00,
2014-04-18 05:54:00,44.0,35.0,-100.00,WSW,240,0.0,2.0,69,0.00,,,-99.99,,2014-04-18 09:54:00,
2014-04-18 06:23:00,45.0,35.0,-100.00,WNW,295,1.0,3.0,67,0.00,,,-99.99,,2014-04-18 10:23:00,
2014-04-18 06:53:00,44.0,35.0,-100.00,South,170,1.0,3.0,70,0.00,,,-99.99,,2014-04-18 10:53:00,
2014-04-18 07:22:00,45.0,35.0,-100.00,South,170,2.0,5.0,68,0.00,,,-99.99,,2014-04-18 11:22:00,
2014-04-18 07:53:00,46.0,35.0,-100.00,South,175,2.0,5.0,66,0.00,,,-99.99,,2014-04-18 11:53:00,
2014-04-18 08:22:00,48.0,36.0,-100.00,NNW,340,1.0,6.0,62,0.00,,,-99.99,,2014-04-18 12:22:00,
2014-04-18 08:52:00,50.0,37.0,-100.00,SE,125,1.0,4.0,62,0.00,,,-99.99,,2014-04-18 12:52:00,
2014-04-18 10:22:00,60.0,33.0,-100.00,SSE,160,3.0,6.0,36,0.00,,,-99.99,,2014-04-18 14:22:00,
2014-04-18 10:51:00,63.0,35.0,-100.00,NE,35,1.0,6.0,34,0.00,,,-99.99,,2014-04-18 14:51:00,
2014-04-18 11:21:00,63.0,34.0,-100.00,NNE,20,0.0,4.0,33,0.00,,,-99.99,,2014-04-18 15:21:00,
2014-04-18 11:52:00,64.0,34.0,-100.00,West,280,2.0,6.0,32,0.00,,,-99.99,,2014-04-18 15:52:00,
2014-04-18 12:22:00,64.0,34.0,-100.00,ESE,115,2.0,7.0,32,0.00,,,-99.99,,2014-04-18 16:22:00,
2014-04-18 12:52:00,65.0,33.0,-100.00,SW,220,4.0,11.0,30,0.00,,,-99.99,,2014-04-18 16:52:00,
2014-04-18 13:22:00,65.0,33.0,-100.00,WSW,240,7.0,11.0,30,0.00,,,-99.99,,2014-04-18 17:22:00,
2014-04-18 13:51:00,66.0,35.0,-100.00,SSW,210,2.0,11.0,31,0.00,,,-99.99,,2014-04-18 17:51:00,
2014-04-18 14:21:00,67.0,37.0,-100.00,SE,135,6.0,9.0,33,0.00,,,-99.99,,2014-04-18 18:21:00,
2014-04-18 14:51:00,67.0,34.0,-100.00,WNW,295,4.0,11.0,29,0.00,,,-99.99,,2014-04-18 18:51:00,
2014-04-18 15:21:00,68.0,33.0,-100.00,WSW,245,4.0,11.0,26,0.00,,,-99.99,,2014-04-18 19:21:00,
2014-04-18 15:51:00,69.0,36.0,-100.00,South,190,6.0,12.0,29,0.00,,,-99.99,,2014-04-18 19:51:00,
2014-04-18 16:22:00,69.0,33.0,-100.00,WSW,245,4.0,10.0,26,0.00,,,-99.99,,2014-04-18 20:22:00,
2014-04-18 16:51:00,68.0,34.0,-100.00,South,175,4.0,10.0,28,0.00,,,-99.99,,2014-04-18 20:51:00,
2014-04-18 17:22:00,69.0,35.0,-100.00,SSW,210,4.0,9.0,28,0.00,,,-99.99,,2014-04-18 21:22:00,
2014-04-18 17:54:00,69.0,34.0,-100.00,SW,220,2.0,9.0,27,0.00,,,-99.99,,2014-04-18 21:54:00,